• In Belarus
  • List of Countries
  • For 7 days
  • Water Temperature
  • Satellite Maps
  • Weather Map
  • Weather Widgets
  • user-avatar
    Login

    Hourly Weather Byala

    Today, 20 January, Saturday

    Time Temperature Precipitation Wind Pressure Humidity
    00:00 +1°C° 0 mm 4 mps 749 mmHg 69%
    01:00 +1°C° 0 mm 4 mps 749 mmHg 72%
    02:00 +1°C° 0 mm 4 mps 749 mmHg 76%
    03:00 0°C° 0 mm 5 mps 749 mmHg 79%
    04:00 0°C° 0 mm 5 mps 748 mmHg 82%
    05:00 0°C° 0 mm 5 mps 748 mmHg 85%
    06:00 0°C° 0 mm 5 mps 748 mmHg 83%
    07:00 0°C° 0 mm 5 mps 748 mmHg 81%
    08:00 +1°C° 0 mm 5 mps 748 mmHg 77%
    09:00 +3°C° 0 mm 4 mps 748 mmHg 72%
    10:00 +5°C° 0 mm 4 mps 748 mmHg 67%
    11:00 +6°C° 0 mm 4 mps 748 mmHg 62%
    12:00 +8°C° 0 mm 3 mps 748 mmHg 62%
    13:00 +8°C° 0 mm 3 mps 748 mmHg 63%
    14:00 +8°C° 0 mm 3 mps 747 mmHg 65%
    15:00 +7°C° 0.1 mm 2 mps 747 mmHg 69%
    16:00 +7°C° 0.1 mm 2 mps 747 mmHg 73%
    17:00 +6°C° 0.1 mm 2 mps 747 mmHg 77%
    18:00 +4°C° 0.6 mm 3 mps 747 mmHg 80%
    19:00 +4°C° 0.6 mm 3 mps 747 mmHg 83%
    20:00 +3°C° 0.6 mm 4 mps 747 mmHg 87%
    21:00 +2°C° 1.9 mm 5 mps 747 mmHg 88%
    22:00 +1°C° 1.9 mm 6 mps 747 mmHg 89%
    23:00 0°C° 1.9 mm 7 mps 746 mmHg 90%

    Tomorrow, 21 January, Sunday

    Time Temperature Precipitation Wind Pressure Humidity
    00:00 +1°C° 1 mm 6 mps 747 mmHg 90%
    01:00 -1°C° 1 mm 6 mps 748 mmHg 91%
    02:00 -1°C° 1 mm 6 mps 748 mmHg 91%
    03:00 0°C° 0 mm 5 mps 748 mmHg 92%
    04:00 -1°C° 0 mm 4 mps 749 mmHg 93%
    05:00 0°C° 0 mm 3 mps 749 mmHg 94%
    06:00 0°C° 0 mm 3 mps 749 mmHg 94%
    07:00 0°C° 0 mm 3 mps 749 mmHg 93%
    08:00 +1°C° 0 mm 2 mps 749 mmHg 93%
    09:00 +1°C° 0 mm 3 mps 749 mmHg 91%
    10:00 +1°C° 0 mm 4 mps 749 mmHg 89%
    11:00 +1°C° 0 mm 5 mps 749 mmHg 88%
    12:00 +2°C° 0.4 mm 5 mps 748 mmHg 89%
    13:00 +2°C° 0.4 mm 5 mps 747 mmHg 90%
    14:00 +2°C° 0.4 mm 6 mps 746 mmHg 91%
    15:00 +3°C° 1.2 mm 5 mps 746 mmHg 93%
    16:00 +3°C° 1.2 mm 5 mps 745 mmHg 94%
    17:00 +3°C° 1.2 mm 5 mps 745 mmHg 96%
    18:00 +4°C° 1.1 mm 4 mps 744 mmHg 96%
    19:00 +4°C° 1.1 mm 4 mps 744 mmHg 97%
    20:00 +4°C° 1.1 mm 3 mps 743 mmHg 98%
    21:00 +4°C° 0.6 mm 3 mps 742 mmHg 98%
    22:00 +5°C° 0.6 mm 3 mps 742 mmHg 98%
    23:00 +5°C° 0.6 mm 3 mps 741 mmHg 98%

    Day after tomorrow, 22 January, Monday

    Time Temperature Precipitation Wind Pressure Humidity
    00:00 +5°C° 1.7 mm 3 mps 741 mmHg 98%
    01:00 +5°C° 1.7 mm 4 mps 740 mmHg 98%
    02:00 +5°C° 1.7 mm 4 mps 740 mmHg 98%
    03:00 +5°C° 0.9 mm 4 mps 739 mmHg 96%
    04:00 +5°C° 0.9 mm 5 mps 739 mmHg 94%
    05:00 +5°C° 0.9 mm 5 mps 738 mmHg 93%
    06:00 +3°C° 0.3 mm 7 mps 739 mmHg 91%
    07:00 +2°C° 0.3 mm 8 mps 739 mmHg 89%
    08:00 +1°C° 0.3 mm 9 mps 739 mmHg 88%
    09:00 +1°C° 0.1 mm 10 mps 739 mmHg 87%
    10:00 +1°C° 0.1 mm 10 mps 740 mmHg 86%
    11:00 +1°C° 0.1 mm 11 mps 740 mmHg 86%
    12:00 +1°C° 0.1 mm 11 mps 740 mmHg 85%
    13:00 -1°C° 0.1 mm 11 mps 741 mmHg 85%
    14:00 -1°C° 0.1 mm 11 mps 741 mmHg 85%
    15:00 -1°C° 0 mm 12 mps 742 mmHg 85%
    16:00 -2°C° 0 mm 12 mps 742 mmHg 84%
    17:00 -3°C° 0 mm 12 mps 743 mmHg 84%
    18:00 -3°C° 0 mm 12 mps 744 mmHg 83%
    19:00 -3°C° 0 mm 12 mps 745 mmHg 83%
    20:00 -3°C° 0 mm 11 mps 746 mmHg 82%
    21:00 -3°C° 0 mm 11 mps 747 mmHg 81%
    22:00 -4°C° 0 mm 11 mps 747 mmHg 81%
    23:00 -4°C° 0 mm 11 mps 748 mmHg 81%

    23 January, Tuesday

    Time Temperature Precipitation Wind Pressure Humidity
    00:00 -4°C° 0 mm 11 mps 749 mmHg 81%
    01:00 -4°C° 0 mm 11 mps 749 mmHg 81%
    02:00 -5°C° 0 mm 10 mps 750 mmHg 81%
    03:00 -5°C° 0 mm 10 mps 750 mmHg 81%
    04:00 -5°C° 0 mm 10 mps 751 mmHg 80%
    05:00 -5°C° 0 mm 10 mps 751 mmHg 80%
    06:00 -5°C° 0 mm 10 mps 752 mmHg 79%
    07:00 -7°C° 0 mm 10 mps 753 mmHg 78%
    08:00 -7°C° 0 mm 10 mps 753 mmHg 77%
    09:00 -5°C° 0 mm 10 mps 754 mmHg 73%
    10:00 -4°C° 0 mm 10 mps 754 mmHg 68%
    11:00 -3°C° 0 mm 10 mps 755 mmHg 63%
    12:00 -3°C° 0 mm 10 mps 755 mmHg 61%
    13:00 -2°C° 0 mm 10 mps 756 mmHg 59%
    14:00 -1°C° 0 mm 9 mps 756 mmHg 57%
    15:00 -3°C° 0 mm 9 mps 756 mmHg 59%
    16:00 -3°C° 0 mm 9 mps 757 mmHg 62%
    17:00 -4°C° 0 mm 9 mps 757 mmHg 64%
    18:00 -5°C° 0 mm 9 mps 758 mmHg 64%
    19:00 -5°C° 0 mm 9 mps 759 mmHg 65%
    20:00 -5°C° 0 mm 9 mps 759 mmHg 65%
    21:00 -6°C° 0 mm 9 mps 760 mmHg 62%
    22:00 -6°C° 0 mm 9 mps 760 mmHg 59%
    23:00 -6°C° 0 mm 9 mps 761 mmHg 56%

    24 January, Wednesday

    Time Temperature Precipitation Wind Pressure Humidity
    00:00 -6°C° 0 mm 9 mps 761 mmHg 54%
    01:00 -8°C° 0 mm 9 mps 761 mmHg 53%
    02:00 -8°C° 0 mm 9 mps 762 mmHg 52%
    03:00 -8°C° 0 mm 9 mps 762 mmHg 51%
    04:00 -7°C° 0 mm 8 mps 762 mmHg 51%
    05:00 -7°C° 0 mm 8 mps 762 mmHg 50%
    06:00 -7°C° 0 mm 8 mps 762 mmHg 49%
    07:00 -7°C° 0 mm 8 mps 763 mmHg 49%
    08:00 -7°C° 0 mm 8 mps 763 mmHg 48%
    09:00 -6°C° 0 mm 8 mps 763 mmHg 44%
    10:00 -5°C° 0 mm 8 mps 763 mmHg 41%
    11:00 -4°C° 0 mm 9 mps 763 mmHg 38%
    12:00 -2°C° 0 mm 8 mps 763 mmHg 39%
    13:00 -2°C° 0 mm 8 mps 763 mmHg 41%
    14:00 -2°C° 0 mm 8 mps 762 mmHg 43%
    15:00 -2°C° 0 mm 8 mps 762 mmHg 50%
    16:00 -3°C° 0 mm 7 mps 762 mmHg 56%
    17:00 -4°C° 0 mm 7 mps 762 mmHg 63%
    18:00 -4°C° 0 mm 7 mps 762 mmHg 68%
    19:00 -6°C° 0 mm 7 mps 762 mmHg 74%
    20:00 -6°C° 0 mm 7 mps 762 mmHg 80%
    21:00 -6°C° 0 mm 7 mps 762 mmHg 80%
    22:00 -6°C° 0 mm 7 mps 762 mmHg 80%
    23:00 -6°C° 0 mm 7 mps 761 mmHg 80%

    25 January, Thursday

    Time Temperature Precipitation Wind Pressure Humidity
    00:00 -6°C° 0 mm 8 mps 761 mmHg 78%
    01:00 -6°C° 0 mm 8 mps 761 mmHg 77%
    02:00 -6°C° 0 mm 9 mps 761 mmHg 75%
    03:00 -8°C° 0.1 mm 9 mps 760 mmHg 74%
    04:00 -8°C° 0.1 mm 9 mps 760 mmHg 74%
    05:00 -8°C° 0.1 mm 9 mps 760 mmHg 74%
    06:00 -8°C° 0.1 mm 8 mps 760 mmHg 75%
    07:00 -8°C° 0.1 mm 8 mps 760 mmHg 76%
    08:00 -8°C° 0.1 mm 8 mps 760 mmHg 77%
    09:00 -7°C° 0 mm 8 mps 760 mmHg 74%
    10:00 -7°C° 0 mm 8 mps 760 mmHg 71%
    11:00 -6°C° 0 mm 7 mps 761 mmHg 69%
    12:00 -6°C° 0 mm 7 mps 760 mmHg 69%
    13:00 -4°C° 0 mm 7 mps 760 mmHg 69%
    14:00 -4°C° 0 mm 7 mps 760 mmHg 69%
    15:00 -4°C° 0 mm 7 mps 760 mmHg 73%
    16:00 -4°C° 0 mm 7 mps 760 mmHg 76%
    17:00 -3°C° 0 mm 7 mps 760 mmHg 80%
    18:00 -3°C° 0.1 mm 7 mps 760 mmHg 82%
    19:00 -3°C° 0.1 mm 6 mps 761 mmHg 83%
    20:00 -3°C° 0.1 mm 6 mps 761 mmHg 85%
    21:00 -3°C° 0 mm 6 mps 761 mmHg 86%
    22:00 -3°C° 0 mm 7 mps 761 mmHg 87%
    23:00 -3°C° 0 mm 7 mps 761 mmHg 89%
    Show more